Overview Statistics Trail Chart Weather Telemetry Raw packets
 

This is the latest recevied weather packets stored in our database for station/object KC5DAQ-26. If no packets are shown the sender has not sent any weather packets the latest 10 day(s).

<< 513 514 515 516 517 518 519 >>
Time Temp. Humidity Pressure Rain* Wind** Luminosity Snow
1787834957 28.33° C 89% 1018.2 hPa 0 mm - 48 W/m² -
1787834896 28.33° C 89% 1018.2 hPa 0 mm - 40 W/m² -
1787834838 28.33° C 89% 1018.2 hPa 0 mm - 35 W/m² -
1787834776 27.78° C 89% 1018.2 hPa 0 mm - 32 W/m² -
1787834718 28.33° C 89% 1018.3 hPa 0 mm - 30 W/m² -
1787834657 27.78° C 89% 1018.3 hPa 0 mm - 28 W/m² -
1787834597 27.78° C 89% 1018.4 hPa 0 mm - 25 W/m² -
1787834537 27.78° C 90% 1018.4 hPa 0 mm - 23 W/m² -
1787834477 27.78° C 90% 1018.4 hPa 0 mm - 19 W/m² -
1787834418 27.78° C 90% 1018.4 hPa 0 mm - 21 W/m² -
1787834358 27.78° C 90% 1018.4 hPa 0 mm - 26 W/m² -
1787834297 27.78° C 90% 1018.2 hPa 0 mm - 26 W/m² -
1787834236 27.78° C 90% 1018.3 hPa 0 mm - 26 W/m² -
1787834177 27.78° C 90% 1018.2 hPa 0 mm - 28 W/m² -
1787834117 27.78° C 90% 1018.2 hPa 0 mm - 32 W/m² -
1787834056 27.78° C 90% 1018.1 hPa 0 mm - 30 W/m² -
1787833998 27.78° C 90% 1018 hPa 0 mm - 30 W/m² -
1787833937 27.78° C 90% 1018 hPa 0 mm - 28 W/m² -
1787833882 27.78° C 90% 1018 hPa 0 mm - 28 W/m² -
1787833817 27.78° C 90% 1017.9 hPa 0 mm - 28 W/m² -
1787833757 27.78° C 91% 1018 hPa 0 mm - 30 W/m² -
1787833697 27.78° C 91% 1018 hPa 0 mm - 30 W/m² -
1787833637 27.78° C 91% 1018 hPa 0 mm - 28 W/m² -
1787833576 27.78° C 91% 1018 hPa 0 mm - 26 W/m² -
1787833517 27.78° C 91% 1018.1 hPa 0 mm - 25 W/m² -

* Rain latest hour (hover to see other rain measurements)
** Current wind speed in m/s (hover to see current wind gust speed)